STARLINK-5559, 56335

Orbit data source: Space-Track

STARLINK-5559, 56335 is a payload satellite owned by SpaceX/Seattle (US) in SSO that was launched on Thu, 27 Apr 2023 UTC via an FALCON 9 launch vehicle from the Air Force Western Test Range (AFWTR). Payload-class satellites include a variety of spacecraft equipped with specific instruments for various scientific and technological missions. These include communications satellites like Starlink; space stations such as the ISS; scientific satellites like the Hubble; Earth observation satellites from companies like Planet Labs, Umbra, and HawkEye 360; GPS; miniature CubeSats for education and research; and military/defense satellites.

Loading next visibility...
Identifier
56335, 2023-058U
Orbit
SSO
Country
Flag of USUS
Related business
Manufacturer
SpaceX/Seattle
Mission
Operational Commercial Communications
Bus & Motor
STARLINK, Unknown motor
Mass
300 kg wet, ~260 kg dry
Launch date (UTC)
2023-04-27 (3 years ago)
Launch vehicle
FALCON 9
Launch site
Air Force Western Test Range (AFWTR)
Object type
Payload
Rocket body
Debris
Shape & HBR
Box + 1 Pan, 10.1 m
Radar Cross Section
11.087 m², Large (>1 m²)

Expand to show TLE details & history
Last TLE update: 3 days ago

TLE from 3 days ago
0 STARLINK-5559
1 56335U 23058U   26170.92671356 -.00001744  00000-0 -11690-3 0  9993
2 56335  97.3366 170.9657 0002022 100.1796 259.9659 15.05667082173582
Epoch: 2026-06-19T22:14Z
TLE epoch observation values (Epoch: 2026-06-19T22:14:28.051Z)
Latitude
-0.00009°
Longitude
-70.79984°
Altitude
552.776 km
Speed
7.585 km/s
True Right ascension
11h 23m 51s
True Declination
0° 00' 00"
Sunlit
Object was in daylight at epoch
Visualization orbit readout
Latitude
Unknown
Longitude
Unknown
Altitude
Unknown
Speed
Unknown
Apparent Right ascension
Unknown
Apparent Declination
Unknown
Sunlit
N/A
Visualization observer readout
Local Sidereal Time
21:29:35
Azimuth
Unknown
Elevation
Unknown
Doppler factor
Unknown
Orbital elements
Apogee altitude
547.841 km
Perigee altitude
545.041 km
Semi-major axis
6,924.578 km
Eccentricity
0.0002
Inclination
97.3366°
RAAN
170.9657°
Arg. of periapsis
100.1796°
True anomaly
259.94309°
Mean anomaly
259.9659°
Eccentric anomaly
259.95449°
Mean motion
3.76663 °/min
Orbital period
95.58 mins
BSTAR
-0.0001169
Loading maneuver chart data...
Computing Atmospheric mass density...
Loading historical data...
Loading historical data...
Loading historical data...
Loading historical data...
Loading historical data...
Loading historical data...
Loading historical data...

Documentation

Showing up to 5 results
|